Location: Ammerl�gen
(47.2167°N, 9.6000°E)
Time: 13:35:50
(UTC+00:00)

RS-15 - Pass Details

Date: 11 December 2021
Orbit: 1882 x 2162 km, 64.8° (Epoch: 28 January)

Event Time Altitude Azimuth Distance (km) Brightness Sun altitude
Exits shadow 05:05:05 22° 299° (WNW) 3,681 8.9 -18.3°
Maximum altitude 05:11:43 36° 348° (NNW) 3,034 8.8 -17.2°
Drops below altitude 10° 05:22:45 10° 52° (NE) 4,684 10.5 -15.4°
Sets 05:26:51 0° 61° (ENE) 5,695 11.1 -14.7°
